This is the latest recevied weather packets stored in our database for station/object OE3APM-13. If no packets are shown the sender has not sent any weather packets the latest 10 day(s).
| Time | Temp. | Humidity | Pressure | Rain* | Wind** | Luminosity | Snow |
|---|---|---|---|---|---|---|---|
| 1777818613 | 25° C | 33% | 1014.7 hPa | 0 mm | - | 527 W/m² | - |
| 1777818310 | 25° C | 30% | 1014.8 hPa | 0 mm | - | 545 W/m² | - |
| 1777818010 | 25° C | 30% | 1014.8 hPa | 0 mm | - | 550 W/m² | - |
| 1777817709 | 25° C | 34% | 1014.9 hPa | 0 mm | - | 568 W/m² | - |
| 1777817409 | 25° C | 33% | 1015 hPa | 0 mm | - | 578 W/m² | - |
| 1777817110 | 25° C | 31% | 1015 hPa | 0 mm | - | 589 W/m² | - |
| 1777816809 | 25° C | 30% | 1015 hPa | 0 mm | - | 608 W/m² | - |
| 1777816509 | 25° C | 32% | 1015.1 hPa | 0 mm | - | 621 W/m² | - |
| 1777816210 | 25° C | 32% | 1015.1 hPa | 0 mm | - | 629 W/m² | - |
| 1777815911 | 25° C | 32% | 1015.2 hPa | 0 mm | - | 642 W/m² | - |
| 1777815609 | 25° C | 31% | 1015.4 hPa | 0 mm | - | 657 W/m² | - |
| 1777815309 | 25° C | 32% | 1015.2 hPa | 0 mm | - | 663 W/m² | - |
| 1777815008 | 25° C | 32% | 1015.3 hPa | 0 mm | - | 671 W/m² | - |
| 1777814708 | 24.44° C | 32% | 1015.4 hPa | 0 mm | - | 684 W/m² | - |
| 1777814405 | 24.44° C | 31% | 1015.5 hPa | 0 mm | - | 701 W/m² | - |
| 1777814103 | 24.44° C | 32% | 1015.5 hPa | 0 mm | - | 703 W/m² | - |
| 1777813804 | 24.44° C | 31% | 1015.6 hPa | 0 mm | - | 714 W/m² | - |
| 1777813503 | 24.44° C | 30% | 1015.7 hPa | 0 mm | - | 729 W/m² | - |
| 1777813201 | 24.44° C | 32% | 1015.7 hPa | 0 mm | - | 737 W/m² | - |
| 1777812894 | 24.44° C | 33% | 1015.7 hPa | 0 mm | - | 742 W/m² | - |
| 1777812593 | 24.44° C | 32% | 1015.8 hPa | 0 mm | - | 754 W/m² | - |
| 1777812294 | 24.44° C | 33% | 1015.8 hPa | 0 mm | - | 759 W/m² | - |
| 1777811994 | 24.44° C | 33% | 1015.9 hPa | 0 mm | - | 765 W/m² | - |
| 1777811695 | 24.44° C | 34% | 1015.9 hPa | 0 mm | - | 773 W/m² | - |
| 1777811394 | 24.44° C | 33% | 1016 hPa | 0 mm | - | 786 W/m² | - |
* Rain latest hour (hover to see other rain measurements)
** Current wind speed in m/s (hover to see current wind gust speed)